Location: Home
(42.5358°N, 72.7383°W)
Time: 11:33:45
(UTC-05:00)

Courier 1B - Pass Details

Date: 02 December 2021
Orbit: 962 x 1209 km, 28.3° (Epoch: 23 January)

Event Time Altitude Azimuth Distance (km) Brightness Sun altitude
Rises 17:35:23 0° 234° (SW) 3,984 12.2 -13.8°
Reaches altitude 10° 17:38:52 10° 221° (SW) 2,982 11.0 -14.4°
Maximum altitude 17:44:21 23° 172° (S) 2,102 9.3 -15.4°
Drops below altitude 10° 17:49:36 10° 123° (ESE) 2,843 9.5 -16.3°
Enters shadow 17:49:47 - 122° (ESE) 2,888 9.6 -16.3°
